Time,TemperatureF,DewpointF,PressureIn,WindDirection,WindDirectionDegrees,WindSpeedMPH,WindSpeedGustMPH,Humidity,HourlyPrecipIn,Conditions,Clouds,dailyrainin,SoftwareType,DateUTC
2013-02-22 00:00:00,22.5,20.8,29.85,North,4,4.0,6.0,93,0.00,,,0.00,VWS V14.01,2013-02-22 06:00:00,
2013-02-22 00:05:00,22.5,20.8,29.85,NE,46,4.0,6.0,93,0.00,,,0.00,VWS V14.01,2013-02-22 06:05:00,
2013-02-22 00:10:00,22.5,20.8,29.85,North,354,3.0,4.0,93,0.00,,,0.00,VWS V14.01,2013-02-22 06:10:00,
2013-02-22 00:15:00,22.6,20.9,29.85,NNW,333,3.0,5.0,93,0.00,,,0.00,VWS V14.01,2013-02-22 06:15:00,
2013-02-22 00:20:00,22.6,20.9,29.86,NNE,29,3.0,6.0,93,0.00,,,0.00,VWS V14.01,2013-02-22 06:20:00,
2013-02-22 00:25:00,22.6,20.9,29.86,NNW,346,2.0,3.0,93,0.00,,,0.00,VWS V14.01,2013-02-22 06:25:00,
2013-02-22 00:30:00,22.6,20.9,29.86,NNE,23,2.0,4.0,93,0.00,,,0.00,VWS V14.01,2013-02-22 06:30:00,
2013-02-22 00:35:00,22.6,20.9,29.86,North,10,3.0,6.0,93,0.00,,,0.00,VWS V14.01,2013-02-22 06:35:00,
2013-02-22 00:40:00,22.5,20.8,29.86,North,354,4.0,7.0,93,0.00,,,0.00,VWS V14.01,2013-02-22 06:40:00,
2013-02-22 00:46:00,22.5,20.8,29.86,NNE,19,5.0,6.0,93,0.00,,,0.00,VWS V14.01,2013-02-22 06:46:00,
2013-02-22 00:51:00,22.5,20.8,29.86,North,354,3.0,4.0,93,0.00,,,0.00,VWS V14.01,2013-02-22 06:51:00,
2013-02-22 00:55:00,22.5,20.8,29.86,North,354,2.0,2.0,93,0.00,,,0.00,VWS V14.01,2013-02-22 06:55:00,
2013-02-22 01:01:00,22.5,20.8,29.86,NNE,25,6.0,8.0,93,0.00,,,0.00,VWS V14.01,2013-02-22 07:01:00,
2013-02-22 01:06:00,22.4,20.4,29.86,North,11,4.0,5.0,92,0.00,,,0.00,VWS V14.01,2013-02-22 07:06:00,
2013-02-22 01:11:00,22.3,20.3,29.86,NE,35,5.0,7.0,92,0.00,,,0.00,VWS V14.01,2013-02-22 07:11:00,
2013-02-22 01:16:00,22.3,20.3,29.85,NNE,13,5.0,5.0,92,0.00,,,0.00,VWS V14.01,2013-02-22 07:16:00,
2013-02-22 01:21:00,22.2,20.5,29.86,North,10,2.0,4.0,93,0.00,,,0.00,VWS V14.01,2013-02-22 07:21:00,
2013-02-22 01:26:00,22.2,20.2,29.86,NNE,12,5.0,8.0,92,0.00,,,0.00,VWS V14.01,2013-02-22 07:26:00,
2013-02-22 01:31:00,22.1,20.1,29.86,North,11,3.0,5.0,92,0.00,,,0.00,VWS V14.01,2013-02-22 07:31:00,
2013-02-22 01:36:00,22.1,20.1,29.85,NNE,16,0.0,3.0,92,0.00,,,0.00,VWS V14.01,2013-02-22 07:36:00,
2013-02-22 01:41:00,22.1,20.1,29.86,NNE,13,1.0,4.0,92,0.00,,,0.00,VWS V14.01,2013-02-22 07:41:00,
2013-02-22 01:46:00,22.0,20.0,29.86,North,349,2.0,6.0,92,0.00,,,0.00,VWS V14.01,2013-02-22 07:46:00,
2013-02-22 01:51:00,22.0,20.0,29.86,NNW,336,2.0,3.0,92,0.00,,,0.00,VWS V14.01,2013-02-22 07:51:00,
2013-02-22 01:56:00,21.9,19.9,29.86,North,8,1.0,4.0,92,0.00,,,0.00,VWS V14.01,2013-02-22 07:56:00,
2013-02-22 02:01:00,21.9,19.9,29.86,North,359,3.0,5.0,92,0.00,,,0.00,VWS V14.01,2013-02-22 08:01:00,
2013-02-22 02:06:00,21.8,19.8,29.86,NW,321,4.0,5.0,92,0.00,,,0.00,VWS V14.01,2013-02-22 08:06:00,
2013-02-22 02:11:00,21.8,19.8,29.86,North,4,2.0,5.0,92,0.00,,,0.00,VWS V14.01,2013-02-22 08:11:00,
2013-02-22 02:16:00,21.7,19.7,29.86,North,354,2.0,2.0,92,0.00,,,0.00,VWS V14.01,2013-02-22 08:16:00,
2013-02-22 02:21:00,21.7,19.7,29.86,NW,311,1.0,3.0,92,0.00,,,0.00,VWS V14.01,2013-02-22 08:21:00,
2013-02-22 02:26:00,21.7,19.7,29.86,NNW,330,1.0,4.0,92,0.00,,,0.00,VWS V14.01,2013-02-22 08:26:00,
2013-02-22 02:31:00,21.7,19.7,29.86,NNW,337,0.0,3.0,92,0.00,,,0.00,VWS V14.01,2013-02-22 08:31:00,
2013-02-22 02:36:00,21.7,19.7,29.86,NNW,333,1.0,4.0,92,0.00,,,0.00,VWS V14.01,2013-02-22 08:36:00,
2013-02-22 02:41:00,21.7,19.7,29.86,NNW,338,4.0,4.0,92,0.00,,,0.00,VWS V14.01,2013-02-22 08:41:00,
2013-02-22 02:46:00,21.7,19.7,29.86,NW,305,4.0,5.0,92,0.00,,,0.00,VWS V14.01,2013-02-22 08:46:00,
2013-02-22 02:51:00,21.6,19.6,29.86,NNW,335,3.0,3.0,92,0.00,,,0.00,VWS V14.01,2013-02-22 08:51:00,
2013-02-22 02:56:00,21.6,19.6,29.86,North,349,2.0,4.0,92,0.00,,,0.00,VWS V14.01,2013-02-22 08:56:00,
2013-02-22 03:01:00,21.6,19.6,29.86,NNW,345,2.0,3.0,92,0.00,,,0.00,VWS V14.01,2013-02-22 09:01:00,
2013-02-22 03:06:00,21.6,19.6,29.86,NNW,337,3.0,3.0,92,0.00,,,0.00,VWS V14.01,2013-02-22 09:06:00,
2013-02-22 03:11:00,21.6,19.6,29.86,North,349,1.0,3.0,92,0.00,,,0.00,VWS V14.01,2013-02-22 09:11:00,
2013-02-22 03:16:00,21.6,19.6,29.86,NW,322,3.0,4.0,92,0.00,,,0.00,VWS V14.01,2013-02-22 09:16:00,
2013-02-22 03:21:00,21.5,19.5,29.86,NNW,327,1.0,3.0,92,0.00,,,0.00,VWS V14.01,2013-02-22 09:21:00,
2013-02-22 03:26:00,21.4,19.4,29.86,NW,311,2.0,5.0,92,0.00,,,0.00,VWS V14.01,2013-02-22 09:26:00,
2013-02-22 03:31:00,21.3,19.3,29.86,NW,315,2.0,3.0,92,0.00,,,0.00,VWS V14.01,2013-02-22 09:31:00,
2013-02-22 03:36:00,21.2,19.2,29.86,WNW,301,2.0,4.0,92,0.00,,,0.00,VWS V14.01,2013-02-22 09:36:00,
2013-02-22 03:41:00,21.0,19.0,29.86,NW,322,3.0,5.0,92,0.00,,,0.00,VWS V14.01,2013-02-22 09:41:00,
2013-02-22 03:46:00,20.8,18.9,29.86,NW,317,3.0,5.0,92,0.00,,,0.00,VWS V14.01,2013-02-22 09:46:00,
2013-02-22 03:51:00,20.7,18.8,29.86,WNW,303,2.0,3.0,92,0.00,,,0.00,VWS V14.01,2013-02-22 09:51:00,
2013-02-22 03:56:00,20.5,18.3,29.86,NW,310,1.0,3.0,91,0.00,,,0.00,VWS V14.01,2013-02-22 09:56:00,
2013-02-22 04:01:00,20.2,18.0,29.86,WNW,296,3.0,4.0,91,0.00,,,0.00,VWS V14.01,2013-02-22 10:01:00,
2013-02-22 04:06:00,20.0,18.0,29.86,NW,312,4.0,6.0,92,0.00,,,0.00,VWS V14.01,2013-02-22 10:06:00,
2013-02-22 04:11:00,19.8,17.6,29.86,NW,311,2.0,5.0,91,0.00,,,0.00,VWS V14.01,2013-02-22 10:11:00,
2013-02-22 04:16:00,19.7,17.8,29.86,WNW,289,6.0,6.0,92,0.00,,,0.00,VWS V14.01,2013-02-22 10:16:00,
2013-02-22 04:21:00,19.5,17.6,29.86,NW,316,4.0,5.0,92,0.00,,,0.00,VWS V14.01,2013-02-22 10:21:00,
2013-02-22 04:26:00,19.5,17.6,29.86,NW,306,3.0,5.0,92,0.00,,,0.00,VWS V14.01,2013-02-22 10:26:00,
2013-02-22 04:31:00,19.4,17.5,29.87,NW,316,3.0,5.0,92,0.00,,,0.00,VWS V14.01,2013-02-22 10:31:00,
2013-02-22 04:36:00,19.4,17.5,29.87,NW,304,2.0,4.0,92,0.00,,,0.00,VWS V14.01,2013-02-22 10:36:00,
2013-02-22 04:41:00,19.4,17.5,29.87,NW,316,2.0,5.0,92,0.00,,,0.00,VWS V14.01,2013-02-22 10:41:00,
2013-02-22 04:46:00,19.3,17.4,29.88,NW,313,4.0,4.0,92,0.00,,,0.00,VWS V14.01,2013-02-22 10:46:00,
2013-02-22 04:51:00,19.3,17.1,29.88,WNW,292,4.0,4.0,91,0.00,,,0.00,VWS V14.01,2013-02-22 10:51:00,
2013-02-22 04:56:00,19.3,17.1,29.88,NNW,330,3.0,4.0,91,0.00,,,0.00,VWS V14.01,2013-02-22 10:56:00,
2013-02-22 05:01:00,19.1,16.9,29.88,NW,305,4.0,5.0,91,0.00,,,0.00,VWS V14.01,2013-02-22 11:01:00,
2013-02-22 05:06:00,19.0,16.8,29.88,WNW,302,2.0,5.0,91,0.00,,,0.00,VWS V14.01,2013-02-22 11:06:00,
2013-02-22 05:11:00,18.8,16.6,29.88,NNW,329,3.0,7.0,91,0.00,,,0.00,VWS V14.01,2013-02-22 11:11:00,
2013-02-22 05:16:00,18.7,16.5,29.88,NW,312,1.0,4.0,91,0.00,,,0.00,VWS V14.01,2013-02-22 11:16:00,
2013-02-22 05:21:00,18.5,16.3,29.88,WNW,296,5.0,5.0,91,0.00,,,0.00,VWS V14.01,2013-02-22 11:21:00,
2013-02-22 05:26:00,18.4,16.2,29.89,NW,312,1.0,4.0,91,0.00,,,0.00,VWS V14.01,2013-02-22 11:26:00,
2013-02-22 05:32:00,18.4,16.2,29.89,WNW,299,3.0,4.0,91,0.00,,,0.00,VWS V14.01,2013-02-22 11:32:00,
2013-02-22 05:37:00,18.4,16.2,29.89,WNW,299,2.0,4.0,91,0.00,,,0.00,VWS V14.01,2013-02-22 11:37:00,
2013-02-22 05:42:00,18.5,16.3,29.89,WNW,298,2.0,4.0,91,0.00,,,0.00,VWS V14.01,2013-02-22 11:42:00,
2013-02-22 05:47:00,18.6,16.4,29.90,WNW,301,4.0,4.0,91,0.00,,,0.00,VWS V14.01,2013-02-22 11:47:00,
2013-02-22 05:52:00,18.6,16.4,29.90,NW,311,3.0,5.0,91,0.00,,,0.00,VWS V14.01,2013-02-22 11:52:00,
2013-02-22 05:57:00,18.6,16.4,29.90,NW,309,3.0,3.0,91,0.00,,,0.00,VWS V14.01,2013-02-22 11:57:00,
2013-02-22 06:02:00,18.6,16.4,29.90,WNW,289,4.0,5.0,91,0.00,,,0.00,VWS V14.01,2013-02-22 12:02:00,
2013-02-22 06:07:00,18.7,16.5,29.90,NW,307,2.0,6.0,91,0.00,,,0.00,VWS V14.01,2013-02-22 12:07:00,
2013-02-22 06:12:00,18.8,16.6,29.90,WNW,290,6.0,6.0,91,0.00,,,0.00,VWS V14.01,2013-02-22 12:12:00,
2013-02-22 06:17:00,18.8,16.6,29.90,West,281,4.0,8.0,91,0.00,,,0.00,VWS V14.01,2013-02-22 12:17:00,
2013-02-22 06:22:00,18.9,16.7,29.90,WNW,287,6.0,9.0,91,0.00,,,0.00,VWS V14.01,2013-02-22 12:22:00,
2013-02-22 06:27:00,18.9,16.7,29.90,WNW,303,2.0,7.0,91,0.00,,,0.00,VWS V14.01,2013-02-22 12:27:00,
2013-02-22 06:32:00,18.8,16.6,29.90,NW,308,4.0,7.0,91,0.00,,,0.00,VWS V14.01,2013-02-22 12:32:00,
2013-02-22 06:37:00,18.7,16.5,29.90,WNW,294,3.0,7.0,91,0.00,,,0.00,VWS V14.01,2013-02-22 12:37:00,
2013-02-22 06:42:00,18.5,16.3,29.90,WNW,296,3.0,7.0,91,0.00,,,0.00,VWS V14.01,2013-02-22 12:42:00,
2013-02-22 06:47:00,18.3,16.1,29.91,WNW,290,3.0,7.0,91,0.00,,,0.00,VWS V14.01,2013-02-22 12:47:00,
2013-02-22 06:52:00,18.1,15.9,29.91,WNW,299,4.0,9.0,91,0.00,,,0.00,VWS V14.01,2013-02-22 12:52:00,
2013-02-22 06:57:00,17.9,15.7,29.91,NW,322,4.0,5.0,91,0.00,,,0.00,VWS V14.01,2013-02-22 12:57:00,
2013-02-22 07:02:00,17.8,15.6,29.91,NW,309,3.0,7.0,91,0.00,,,0.00,VWS V14.01,2013-02-22 13:02:00,
2013-02-22 07:07:00,17.6,15.2,29.91,NW,312,3.0,7.0,90,0.00,,,0.00,VWS V14.01,2013-02-22 13:07:00,
2013-02-22 07:12:00,17.6,15.4,29.91,WNW,291,4.0,6.0,91,0.00,,,0.00,VWS V14.01,2013-02-22 13:12:00,
2013-02-22 07:17:00,17.5,15.3,29.91,NW,312,5.0,5.0,91,0.00,,,0.00,VWS V14.01,2013-02-22 13:17:00,
2013-02-22 07:22:00,17.7,15.5,29.91,NW,316,4.0,5.0,91,0.00,,,0.00,VWS V14.01,2013-02-22 13:22:00,
2013-02-22 07:27:00,18.0,15.8,29.92,WNW,285,3.0,4.0,91,0.00,,,0.00,VWS V14.01,2013-02-22 13:27:00,
2013-02-22 07:32:00,18.2,16.0,29.92,NW,320,3.0,8.0,91,0.00,,,0.00,VWS V14.01,2013-02-22 13:32:00,
2013-02-22 07:37:00,18.4,16.2,29.93,NW,317,3.0,6.0,91,0.00,,,0.00,VWS V14.01,2013-02-22 13:37:00,
2013-02-22 07:42:00,18.6,16.4,29.93,NW,324,3.0,8.0,91,0.00,,,0.00,VWS V14.01,2013-02-22 13:42:00,
2013-02-22 07:47:00,18.7,16.5,29.94,NNW,330,1.0,9.0,91,0.00,,,0.00,VWS V14.01,2013-02-22 13:47:00,
2013-02-22 07:52:00,18.7,16.3,29.94,WNW,294,6.0,10.0,90,0.00,,BKN250,0.00,VWS V14.01,2013-02-22 13:52:00,
2013-02-22 07:57:00,18.8,16.4,29.95,WNW,296,4.0,5.0,90,0.00,,BKN250,0.00,VWS V14.01,2013-02-22 13:57:00,
2013-02-22 08:02:00,18.8,16.4,29.95,WNW,300,2.0,5.0,90,0.00,,BKN250,0.00,VWS V14.01,2013-02-22 14:02:00,
2013-02-22 08:07:00,18.9,16.5,29.95,WNW,297,3.0,8.0,90,0.00,,BKN250,0.00,VWS V14.01,2013-02-22 14:07:00,
2013-02-22 08:12:00,18.9,16.5,29.96,WNW,293,6.0,6.0,90,0.00,,BKN250,0.00,VWS V14.01,2013-02-22 14:12:00,
2013-02-22 08:17:00,19.0,16.6,29.96,NW,309,4.0,6.0,90,0.00,,BKN250,0.00,VWS V14.01,2013-02-22 14:17:00,
2013-02-22 08:23:00,19.0,16.6,29.97,NW,311,6.0,8.0,90,0.00,,BKN250,0.00,VWS V14.01,2013-02-22 14:23:00,
2013-02-22 08:28:00,19.0,16.6,29.97,North,359,4.0,6.0,90,0.00,,BKN250,0.00,VWS V14.01,2013-02-22 14:28:00,
2013-02-22 08:33:00,19.1,16.7,29.97,WNW,292,4.0,6.0,90,0.00,,BKN250,0.00,VWS V14.01,2013-02-22 14:33:00,
2013-02-22 08:38:00,19.1,16.7,29.98,WNW,292,5.0,7.0,90,0.00,,BKN250,0.00,VWS V14.01,2013-02-22 14:38:00,
2013-02-22 08:43:00,19.1,16.4,29.98,NW,322,4.0,8.0,89,0.00,,SCT250,0.00,VWS V14.01,2013-02-22 14:43:00,
2013-02-22 08:48:00,19.1,16.4,29.98,NNW,330,3.0,7.0,89,0.00,,SCT250,0.00,VWS V14.01,2013-02-22 14:48:00,
2013-02-22 08:53:00,19.2,16.5,29.98,NW,317,4.0,10.0,89,0.00,,SCT250,0.00,VWS V14.01,2013-02-22 14:53:00,
2013-02-22 08:58:00,19.3,16.6,29.99,WNW,297,3.0,5.0,89,0.00,,SCT250,0.00,VWS V14.01,2013-02-22 14:58:00,
2013-02-22 09:03:00,19.4,16.7,29.99,NW,320,4.0,7.0,89,0.00,,SCT250,0.00,VWS V14.01,2013-02-22 15:03:00,
2013-02-22 09:08:00,19.4,16.7,29.99,WNW,290,5.0,5.0,89,0.00,,SCT250,0.00,VWS V14.01,2013-02-22 15:08:00,
2013-02-22 09:13:00,19.4,16.7,30.00,NW,318,3.0,9.0,89,0.00,,SCT250,0.00,VWS V14.01,2013-02-22 15:13:00,
2013-02-22 09:18:00,19.5,16.8,30.00,WNW,290,4.0,5.0,89,0.00,,SCT250,0.00,VWS V14.01,2013-02-22 15:18:00,
2013-02-22 09:23:00,19.5,16.5,30.00,North,354,3.0,5.0,88,0.00,,SCT250,0.00,VWS V14.01,2013-02-22 15:23:00,
2013-02-22 09:28:00,19.7,16.7,29.99,NNW,329,3.0,4.0,88,0.00,,SCT250,0.00,VWS V14.01,2013-02-22 15:28:00,
2013-02-22 09:33:00,19.9,16.9,30.00,NW,310,3.0,5.0,88,0.00,,SCT250,0.00,VWS V14.01,2013-02-22 15:33:00,
2013-02-22 09:38:00,19.8,16.8,30.00,NW,305,1.0,5.0,88,0.00,,SCT250,0.00,VWS V14.01,2013-02-22 15:38:00,
2013-02-22 09:43:00,20.0,17.0,30.00,NNW,327,1.0,5.0,88,0.00,,SCT250,0.00,VWS V14.01,2013-02-22 15:43:00,
2013-02-22 09:48:00,20.4,17.4,30.00,North,354,3.0,4.0,88,0.00,,SCT250,0.00,VWS V14.01,2013-02-22 15:48:00,
2013-02-22 09:53:00,20.5,17.2,30.00,WNW,302,4.0,6.0,87,0.00,,SCT250,0.00,VWS V14.01,2013-02-22 15:53:00,
2013-02-22 09:58:00,20.7,17.7,30.00,WNW,288,3.0,3.0,88,0.00,,SCT250,0.00,VWS V14.01,2013-02-22 15:58:00,
2013-02-22 10:03:00,20.8,17.5,30.00,WNW,291,0.0,6.0,87,0.00,,SCT250,0.00,VWS V14.01,2013-02-22 16:03:00,
2013-02-22 10:08:00,20.6,17.4,30.00,WNW,283,7.0,7.0,87,0.00,,SCT250,0.00,VWS V14.01,2013-02-22 16:08:00,
2013-02-22 10:13:00,20.6,17.4,30.00,North,354,4.0,5.0,87,0.00,,SCT250,0.00,VWS V14.01,2013-02-22 16:13:00,
2013-02-22 10:18:00,20.8,17.3,30.00,WNW,290,7.0,9.0,86,0.00,,SCT250,0.00,VWS V14.01,2013-02-22 16:18:00,
2013-02-22 10:23:00,21.1,17.6,30.01,NNW,338,2.0,6.0,86,0.00,,SCT250,0.00,VWS V14.01,2013-02-22 16:23:00,
2013-02-22 10:28:00,21.6,18.3,30.00,NNW,345,2.0,7.0,87,0.00,,SCT250,0.00,VWS V14.01,2013-02-22 16:28:00,
2013-02-22 10:33:00,22.0,18.5,30.01,WNW,291,3.0,7.0,86,0.00,,SCT250,0.00,VWS V14.01,2013-02-22 16:33:00,
2013-02-22 10:38:00,22.0,18.5,30.01,WNW,289,10.0,10.0,86,0.00,,SCT250,0.00,VWS V14.01,2013-02-22 16:38:00,
2013-02-22 10:43:00,22.0,18.5,30.01,NW,308,2.0,5.0,86,0.00,,BKN250,0.00,VWS V14.01,2013-02-22 16:43:00,
2013-02-22 10:48:00,22.0,17.9,30.01,WNW,299,3.0,8.0,84,0.00,,BKN250,0.00,VWS V14.01,2013-02-22 16:48:00,
2013-02-22 10:53:00,22.0,18.2,30.02,NW,304,6.0,6.0,85,0.00,,BKN250,0.00,VWS V14.01,2013-02-22 16:53:00,
2013-02-22 10:58:00,22.1,18.3,30.02,WNW,286,8.0,8.0,85,0.00,,BKN250,0.00,VWS V14.01,2013-02-22 16:58:00,
2013-02-22 11:03:00,22.3,18.5,30.02,West,273,5.0,7.0,85,0.00,,BKN250,0.00,VWS V14.01,2013-02-22 17:03:00,
2013-02-22 11:08:00,22.5,18.4,30.03,West,264,3.0,8.0,84,0.00,,BKN250,0.00,VWS V14.01,2013-02-22 17:08:00,
2013-02-22 11:13:00,22.5,18.4,30.03,WNW,282,3.0,3.0,84,0.00,,BKN250,0.01,VWS V14.01,2013-02-22 17:13:00,
2013-02-22 11:18:00,22.2,17.8,30.03,West,264,3.0,9.0,83,0.00,,BKN250,0.01,VWS V14.01,2013-02-22 17:18:00,
2013-02-22 11:23:00,22.1,18.0,30.04,West,279,7.0,7.0,84,0.00,,BKN250,0.01,VWS V14.01,2013-02-22 17:23:00,
2013-02-22 11:28:00,21.7,17.3,30.04,WSW,250,5.0,9.0,83,0.00,,BKN250,0.02,VWS V14.01,2013-02-22 17:28:00,
2013-02-22 11:33:00,21.8,17.7,30.04,WSW,255,7.0,8.0,84,0.00,,BKN250,0.02,VWS V14.01,2013-02-22 17:33:00,
2013-02-22 11:38:00,21.8,17.7,30.04,NW,312,3.0,6.0,84,0.00,,BKN250,0.02,VWS V14.01,2013-02-22 17:38:00,
2013-02-22 11:43:00,22.1,17.7,30.04,West,270,8.0,9.0,83,0.00,,BKN250,0.02,VWS V14.01,2013-02-22 17:43:00,
2013-02-22 11:48:00,21.8,17.4,30.05,WSW,247,6.0,11.0,83,0.00,,BKN250,0.02,VWS V14.01,2013-02-22 17:48:00,
2013-02-22 11:53:00,22.3,18.2,30.05,West,274,8.0,9.0,84,0.00,,BKN250,0.03,VWS V14.01,2013-02-22 17:53:00,
2013-02-22 11:58:00,22.1,17.7,30.05,West,272,8.0,8.0,83,0.00,,BKN250,0.03,VWS V14.01,2013-02-22 17:58:00,
2013-02-22 12:03:00,22.1,17.7,30.05,West,270,4.0,9.0,83,0.00,,BKN250,0.03,VWS V14.01,2013-02-22 18:03:00,
2013-02-22 12:08:00,22.2,17.8,30.05,WSW,252,4.0,8.0,83,0.00,,BKN250,0.03,VWS V14.01,2013-02-22 18:08:00,
2013-02-22 12:13:00,21.7,17.1,30.05,WSW,249,8.0,11.0,82,0.00,,BKN250,0.03,VWS V14.01,2013-02-22 18:13:00,
2013-02-22 12:18:00,21.6,17.2,30.06,NW,304,2.0,8.0,83,0.00,,BKN250,0.03,VWS V14.01,2013-02-22 18:18:00,
2013-02-22 12:23:00,21.9,17.3,30.05,West,270,6.0,10.0,82,0.00,,BKN250,0.03,VWS V14.01,2013-02-22 18:23:00,
2013-02-22 12:29:00,22.0,17.6,30.05,West,264,6.0,7.0,83,0.00,,BKN250,0.04,VWS V14.01,2013-02-22 18:29:00,
2013-02-22 12:34:00,22.1,17.7,30.05,WNW,288,8.0,10.0,83,0.00,,BKN250,0.04,VWS V14.01,2013-02-22 18:34:00,
2013-02-22 12:39:00,22.3,17.9,30.06,West,263,8.0,10.0,83,0.00,,BKN250,0.04,VWS V14.01,2013-02-22 18:39:00,
2013-02-22 12:44:00,22.4,17.8,30.05,NW,306,11.0,11.0,82,0.00,,BKN250,0.04,VWS V14.01,2013-02-22 18:44:00,
2013-02-22 12:49:00,22.1,17.7,30.05,SW,218,5.0,7.0,83,0.00,,BKN250,0.04,VWS V14.01,2013-02-22 18:49:00,
2013-02-22 12:54:00,22.2,17.8,30.05,WSW,241,4.0,10.0,83,0.00,,BKN250,0.04,VWS V14.01,2013-02-22 18:54:00,
2013-02-22 12:59:00,21.9,17.3,30.05,WNW,293,5.0,14.0,82,0.00,,BKN250,0.04,VWS V14.01,2013-02-22 18:59:00,
2013-02-22 13:04:00,21.7,17.1,30.05,West,265,5.0,9.0,82,0.00,,BKN250,0.04,VWS V14.01,2013-02-22 19:04:00,
2013-02-22 13:09:00,22.3,17.9,30.05,West,278,6.0,13.0,83,0.00,,BKN250,0.04,VWS V14.01,2013-02-22 19:09:00,
2013-02-22 13:14:00,22.1,17.2,30.05,WNW,300,5.0,14.0,81,0.00,,BKN250,0.04,VWS V14.01,2013-02-22 19:14:00,
2013-02-22 13:19:00,22.1,17.5,30.05,WNW,293,8.0,11.0,82,0.00,,BKN250,0.04,VWS V14.01,2013-02-22 19:19:00,
2013-02-22 13:24:00,22.0,17.4,30.05,WNW,299,10.0,13.0,82,0.00,,BKN250,0.04,VWS V14.01,2013-02-22 19:24:00,
2013-02-22 13:29:00,22.3,17.6,30.04,WNW,300,7.0,11.0,82,0.00,,BKN250,0.04,VWS V14.01,2013-02-22 19:29:00,
2013-02-22 13:34:00,22.8,18.1,30.05,WNW,299,14.0,14.0,82,0.00,,BKN250,0.04,VWS V14.01,2013-02-22 19:34:00,
2013-02-22 13:39:00,22.4,17.5,30.04,WNW,284,10.0,12.0,81,0.00,,BKN250,0.04,VWS V14.01,2013-02-22 19:39:00,
2013-02-22 13:44:00,22.5,17.6,30.04,WNW,293,9.0,9.0,81,0.00,,BKN250,0.04,VWS V14.01,2013-02-22 19:44:00,
2013-02-22 13:49:00,22.7,17.5,30.04,WNW,290,10.0,13.0,80,0.00,,BKN250,0.04,VWS V14.01,2013-02-22 19:49:00,
2013-02-22 13:54:00,22.4,17.5,30.04,WNW,302,5.0,9.0,81,0.00,,BKN250,0.04,VWS V14.01,2013-02-22 19:54:00,
2013-02-22 13:59:00,22.7,17.8,30.04,WSW,240,9.0,10.0,81,0.00,,BKN250,0.04,VWS V14.01,2013-02-22 19:59:00,
2013-02-22 14:04:00,22.7,17.5,30.04,WNW,291,7.0,13.0,80,0.00,,BKN250,0.04,VWS V14.01,2013-02-22 20:04:00,
2013-02-22 14:09:00,22.7,17.5,30.04,WNW,299,5.0,11.0,80,0.00,,BKN250,0.05,VWS V14.01,2013-02-22 20:09:00,
2013-02-22 14:14:00,23.2,18.2,30.04,West,270,7.0,8.0,81,0.00,,BKN250,0.05,VWS V14.01,2013-02-22 20:14:00,
2013-02-22 14:19:00,23.3,18.1,30.04,WNW,291,8.0,14.0,80,0.00,,BKN250,0.05,VWS V14.01,2013-02-22 20:19:00,
2013-02-22 14:24:00,23.2,18.0,30.04,WNW,299,4.0,10.0,80,0.00,,BKN250,0.05,VWS V14.01,2013-02-22 20:24:00,
2013-02-22 14:29:00,23.5,18.5,30.04,NW,324,5.0,8.0,81,0.00,,BKN250,0.05,VWS V14.01,2013-02-22 20:29:00,
2013-02-22 14:34:00,23.6,18.4,30.04,WNW,289,10.0,11.0,80,0.00,,BKN250,0.05,VWS V14.01,2013-02-22 20:34:00,
2013-02-22 14:39:00,23.4,17.9,30.04,NW,307,5.0,8.0,79,0.00,,BKN250,0.05,VWS V14.01,2013-02-22 20:39:00,
2013-02-22 14:44:00,23.4,17.9,30.04,West,268,9.0,11.0,79,0.00,,BKN250,0.05,VWS V14.01,2013-02-22 20:44:00,
2013-02-22 14:49:00,23.5,18.2,30.04,NW,310,6.0,6.0,80,0.00,,BKN250,0.05,VWS V14.01,2013-02-22 20:49:00,
2013-02-22 14:54:00,23.6,18.1,30.05,WNW,291,9.0,13.0,79,0.00,,BKN250,0.05,VWS V14.01,2013-02-22 20:54:00,
2013-02-22 15:00:00,23.7,17.9,30.05,West,267,6.0,10.0,78,0.00,,BKN250,0.05,VWS V14.01,2013-02-22 21:00:00,
2013-02-22 15:05:00,23.6,17.5,30.05,WNW,297,6.0,9.0,77,0.00,,BKN250,0.05,VWS V14.01,2013-02-22 21:05:00,
2013-02-22 15:10:00,23.7,17.6,30.05,WNW,290,8.0,8.0,77,0.00,,BKN250,0.05,VWS V14.01,2013-02-22 21:10:00,
2013-02-22 15:15:00,24.0,18.1,30.05,West,279,3.0,5.0,78,0.00,,BKN250,0.05,VWS V14.01,2013-02-22 21:15:00,
2013-02-22 15:20:00,24.3,17.8,30.05,NNW,341,4.0,9.0,76,0.00,,BKN250,0.05,VWS V14.01,2013-02-22 21:20:00,
2013-02-22 15:25:00,24.0,17.5,30.05,NW,307,5.0,11.0,76,0.00,,BKN250,0.05,VWS V14.01,2013-02-22 21:25:00,
2013-02-22 15:30:00,23.9,17.5,30.05,WNW,301,10.0,13.0,76,0.00,,BKN250,0.05,VWS V14.01,2013-02-22 21:30:00,
2013-02-22 15:49:00,23.7,17.3,30.05,WNW,294,7.0,12.0,76,0.00,,BKN250,0.05,VWS V14.01,2013-02-22 21:49:00,
2013-02-22 15:54:00,23.6,17.2,30.06,WNW,287,8.0,11.0,76,0.00,,SCT250,0.05,VWS V14.01,2013-02-22 21:54:00,
2013-02-22 15:59:00,23.6,17.2,30.06,WNW,291,6.0,12.0,76,0.00,,SCT250,0.05,VWS V14.01,2013-02-22 21:59:00,
2013-02-22 16:04:00,24.0,17.5,30.05,WNW,295,5.0,7.0,76,0.00,,SCT250,0.05,VWS V14.01,2013-02-22 22:04:00,
2013-02-22 16:09:00,24.1,17.6,30.06,West,280,5.0,10.0,76,0.00,,SCT250,0.05,VWS V14.01,2013-02-22 22:09:00,
2013-02-22 16:14:00,24.2,17.7,30.06,WNW,285,5.0,12.0,76,0.00,,SCT250,0.05,VWS V14.01,2013-02-22 22:14:00,
2013-02-22 16:19:00,24.2,17.7,30.05,West,277,6.0,9.0,76,0.00,,SCT250,0.05,VWS V14.01,2013-02-22 22:19:00,
2013-02-22 16:25:00,24.0,17.5,30.06,WNW,299,3.0,8.0,76,0.00,,SCT250,0.05,VWS V14.01,2013-02-22 22:25:00,
2013-02-22 16:30:00,23.7,17.0,30.06,WNW,297,5.0,8.0,75,0.00,,SCT250,0.05,VWS V14.01,2013-02-22 22:30:00,
2013-02-22 16:35:00,23.6,16.9,30.06,WNW,283,5.0,10.0,75,0.00,,SCT250,0.05,VWS V14.01,2013-02-22 22:35:00,
2013-02-22 16:40:00,23.0,16.6,30.06,West,277,7.0,12.0,76,0.00,,SCT250,0.05,VWS V14.01,2013-02-22 22:40:00,
2013-02-22 16:45:00,22.6,16.5,30.06,WNW,289,8.0,8.0,77,0.00,,SCT250,0.05,VWS V14.01,2013-02-22 22:45:00,
2013-02-22 16:50:00,22.5,16.7,30.06,West,279,6.0,7.0,78,0.00,,SCT250,0.05,VWS V14.01,2013-02-22 22:50:00,
2013-02-22 16:55:00,22.5,16.7,30.06,WNW,301,3.0,6.0,78,0.00,,SCT250,0.05,VWS V14.01,2013-02-22 22:55:00,
2013-02-22 17:00:00,22.6,16.8,30.06,West,272,5.0,6.0,78,0.00,,SCT250,0.05,VWS V14.01,2013-02-22 23:00:00,
2013-02-22 17:05:00,22.8,17.0,30.06,West,266,3.0,6.0,78,0.00,,SCT250,0.05,VWS V14.01,2013-02-22 23:05:00,
2013-02-22 17:10:00,22.8,16.7,30.06,WNW,285,4.0,10.0,77,0.00,,SCT250,0.05,VWS V14.01,2013-02-22 23:10:00,
2013-02-22 17:15:00,22.6,16.8,30.06,West,274,7.0,7.0,78,0.00,,SCT250,0.05,VWS V14.01,2013-02-22 23:15:00,
2013-02-22 17:20:00,22.4,16.6,30.06,West,264,3.0,4.0,78,0.00,,SCT250,0.05,VWS V14.01,2013-02-22 23:20:00,
2013-02-22 17:25:00,22.0,16.2,30.06,West,278,2.0,5.0,78,0.00,,SCT250,0.05,VWS V14.01,2013-02-22 23:25:00,
2013-02-22 17:30:00,21.7,16.2,30.07,West,274,6.0,7.0,79,0.00,,SCT250,0.05,VWS V14.01,2013-02-22 23:30:00,
2013-02-22 17:35:00,21.6,16.1,30.06,West,268,3.0,5.0,79,0.00,,SCT250,0.05,VWS V14.01,2013-02-22 23:35:00,
2013-02-22 17:40:00,21.5,16.0,30.07,West,279,2.0,7.0,79,0.00,,SCT250,0.05,VWS V14.01,2013-02-22 23:40:00,
2013-02-22 17:45:00,21.3,15.8,30.07,West,273,4.0,7.0,79,0.00,,BKN250,0.05,VWS V14.01,2013-02-22 23:45:00,
2013-02-22 17:50:00,21.1,15.6,30.07,WNW,284,4.0,7.0,79,0.00,,BKN250,0.05,VWS V14.01,2013-02-22 23:50:00,
2013-02-22 17:55:00,20.8,15.6,30.07,West,262,2.0,7.0,80,0.00,,BKN250,0.05,VWS V14.01,2013-02-22 23:55:00,
2013-02-22 18:00:00,20.5,15.3,30.07,WSW,258,1.0,4.0,80,0.00,,BKN250,0.05,VWS V14.01,2013-02-23 00:00:00,
2013-02-22 18:05:00,20.3,15.1,30.07,West,281,2.0,5.0,80,0.00,,BKN250,0.05,VWS V14.01,2013-02-23 00:05:00,
2013-02-22 18:10:00,20.1,15.2,30.07,WNW,292,0.0,3.0,81,0.00,,OVC250,0.05,VWS V14.01,2013-02-23 00:10:00,
2013-02-22 18:15:00,19.9,15.0,30.07,West,281,0.0,6.0,81,0.00,,OVC250,0.05,VWS V14.01,2013-02-23 00:15:00,
2013-02-22 18:21:00,19.7,14.8,30.07,West,270,4.0,6.0,81,0.00,,OVC250,0.05,VWS V14.01,2013-02-23 00:21:00,
2013-02-22 18:25:00,19.6,14.7,30.07,WNW,287,3.0,5.0,81,0.00,,OVC250,0.05,VWS V14.01,2013-02-23 00:25:00,
2013-02-22 18:31:00,19.5,14.6,30.07,WNW,298,2.0,5.0,81,0.00,,OVC250,0.05,VWS V14.01,2013-02-23 00:31:00,
2013-02-22 18:36:00,19.3,14.4,30.08,West,260,2.0,3.0,81,0.00,,OVC250,0.05,VWS V14.01,2013-02-23 00:36:00,
2013-02-22 18:41:00,19.1,14.2,30.08,WNW,300,2.0,3.0,81,0.00,,OVC250,0.05,VWS V14.01,2013-02-23 00:41:00,
2013-02-22 18:46:00,19.0,14.4,30.08,WNW,295,0.0,2.0,82,0.00,,OVC250,0.05,VWS V14.01,2013-02-23 00:46:00,
2013-02-22 18:51:00,18.8,14.2,30.08,WSW,252,0.0,0.0,82,0.00,,BKN250,0.05,VWS V14.01,2013-02-23 00:51:00,
2013-02-22 18:56:00,18.6,14.0,30.08,WSW,246,0.0,1.0,82,0.00,,BKN250,0.05,VWS V14.01,2013-02-23 00:56:00,
2013-02-22 19:01:00,18.4,13.8,30.09,WNW,283,0.0,2.0,82,0.00,,BKN250,0.05,VWS V14.01,2013-02-23 01:01:00,
2013-02-22 19:06:00,18.3,13.7,30.08,WNW,282,0.0,0.0,82,0.00,,BKN250,0.05,VWS V14.01,2013-02-23 01:06:00,
2013-02-22 19:11:00,18.1,13.5,30.08,WNW,295,0.0,0.0,82,0.00,,BKN250,0.05,VWS V14.01,2013-02-23 01:11:00,
2013-02-22 19:16:00,18.0,13.7,30.08,WNW,295,0.0,0.0,83,0.00,,BKN250,0.05,VWS V14.01,2013-02-23 01:16:00,
2013-02-22 19:21:00,17.9,13.6,30.08,WNW,295,0.0,0.0,83,0.00,,BKN250,0.05,VWS V14.01,2013-02-23 01:21:00,
2013-02-22 19:26:00,17.9,13.6,30.09,WNW,295,0.0,0.0,83,0.00,,BKN250,0.05,VWS V14.01,2013-02-23 01:26:00,
2013-02-22 19:31:00,17.9,13.6,30.08,WNW,295,0.0,0.0,83,0.00,,BKN250,0.05,VWS V14.01,2013-02-23 01:31:00,
2013-02-22 19:36:00,17.7,13.4,30.08,WNW,287,2.0,3.0,83,0.00,,BKN250,0.05,VWS V14.01,2013-02-23 01:36:00,
2013-02-22 19:41:00,17.7,13.4,30.09,West,278,0.0,3.0,83,0.00,,BKN250,0.05,VWS V14.01,2013-02-23 01:41:00,
2013-02-22 19:46:00,17.6,13.3,30.09,WNW,298,0.0,0.0,83,0.00,,BKN250,0.05,VWS V14.01,2013-02-23 01:46:00,
2013-02-22 19:51:00,17.6,13.3,30.09,WNW,297,0.0,0.0,83,0.00,,BKN250,0.05,VWS V14.01,2013-02-23 01:51:00,
2013-02-22 19:56:00,17.5,13.2,30.09,WNW,296,1.0,4.0,83,0.00,,BKN250,0.05,VWS V14.01,2013-02-23 01:56:00,
2013-02-22 20:01:00,17.4,13.4,30.09,WNW,296,0.0,2.0,84,0.00,,BKN250,0.05,VWS V14.01,2013-02-23 02:01:00,
2013-02-22 20:06:00,17.3,13.0,30.09,WNW,296,0.0,0.0,83,0.00,,BKN250,0.05,VWS V14.01,2013-02-23 02:06:00,
2013-02-22 20:11:00,17.2,13.2,30.09,WNW,296,0.0,0.0,84,0.00,,BKN250,0.05,VWS V14.01,2013-02-23 02:11:00,
2013-02-22 20:16:00,17.1,13.1,30.09,WNW,296,0.0,1.0,84,0.00,,BKN250,0.05,VWS V14.01,2013-02-23 02:16:00,
2013-02-22 20:21:00,16.9,12.9,30.09,WNW,295,0.0,0.0,84,0.00,,BKN250,0.05,VWS V14.01,2013-02-23 02:21:00,
2013-02-22 20:26:00,16.7,12.7,30.09,WNW,295,0.0,0.0,84,0.00,,BKN250,0.05,VWS V14.01,2013-02-23 02:26:00,
2013-02-22 20:31:00,16.6,12.6,30.09,WNW,295,1.0,2.0,84,0.00,,BKN250,0.05,VWS V14.01,2013-02-23 02:31:00,
2013-02-22 20:36:00,16.7,13.0,30.09,WNW,295,0.0,0.0,85,0.00,,BKN250,0.05,VWS V14.01,2013-02-23 02:36:00,
2013-02-22 20:41:00,16.6,12.6,30.09,West,261,2.0,3.0,84,0.00,,SCT027,0.05,VWS V14.01,2013-02-23 02:41:00,
2013-02-22 20:46:00,16.2,12.2,30.09,WSW,251,2.0,2.0,84,0.00,,SCT027,0.05,VWS V14.01,2013-02-23 02:46:00,
2013-02-22 20:51:00,15.6,11.6,30.09,WSW,250,1.0,2.0,84,0.00,,SCT027,0.05,VWS V14.01,2013-02-23 02:51:00,
2013-02-22 20:56:00,15.3,11.3,30.09,WSW,244,2.0,3.0,84,0.00,,SCT027,0.05,VWS V14.01,2013-02-23 02:56:00,
2013-02-22 21:01:00,15.2,11.5,30.09,WSW,244,2.0,3.0,85,0.00,,SCT027,0.05,VWS V14.01,2013-02-23 03:01:00,
2013-02-22 21:06:00,14.9,11.2,30.09,WSW,244,0.0,3.0,85,0.00,,SCT027,0.05,VWS V14.01,2013-02-23 03:06:00,
2013-02-22 21:11:00,14.6,10.9,30.09,WSW,244,0.0,0.0,85,0.00,,SCT027,0.05,VWS V14.01,2013-02-23 03:11:00,
2013-02-22 21:16:00,14.4,10.7,30.09,WSW,244,0.0,0.0,85,0.00,,SCT027,0.05,VWS V14.01,2013-02-23 03:16:00,
2013-02-22 21:21:00,14.3,10.9,30.09,WSW,244,0.0,0.0,86,0.00,,SCT027,0.05,VWS V14.01,2013-02-23 03:21:00,
2013-02-22 21:26:00,14.3,10.9,30.09,WSW,244,0.0,0.0,86,0.00,,SCT027,0.05,VWS V14.01,2013-02-23 03:26:00,
2013-02-22 21:31:00,14.3,10.9,30.09,WSW,244,0.0,0.0,86,0.00,,SCT027,0.05,VWS V14.01,2013-02-23 03:31:00,
2013-02-22 21:36:00,14.3,10.9,30.09,WSW,244,0.0,0.0,86,0.00,,SCT027,0.05,VWS V14.01,2013-02-23 03:36:00,
2013-02-22 21:41:00,14.2,10.8,30.09,WSW,244,0.0,0.0,86,0.00,,OVC023,0.05,VWS V14.01,2013-02-23 03:41:00,
2013-02-22 21:46:00,14.2,11.1,30.09,WSW,244,0.0,0.0,87,0.00,,OVC023,0.05,VWS V14.01,2013-02-23 03:46:00,
2013-02-22 21:51:00,14.1,10.7,30.09,WSW,244,0.0,0.0,86,0.00,,SCT023,0.05,VWS V14.01,2013-02-23 03:51:00,
2013-02-22 21:56:00,14.1,10.9,30.09,WSW,256,2.0,3.0,87,0.00,,SCT023,0.05,VWS V14.01,2013-02-23 03:56:00,
2013-02-22 22:01:00,14.0,10.9,30.09,West,264,0.0,0.0,87,0.00,,SCT023,0.05,VWS V14.01,2013-02-23 04:01:00,
2013-02-22 22:06:00,14.0,10.9,30.09,West,264,0.0,0.0,87,0.00,,SCT023,0.05,VWS V14.01,2013-02-23 04:06:00,
2013-02-22 22:11:00,14.0,10.9,30.09,West,264,0.0,0.0,87,0.00,,SCT023,0.05,VWS V14.01,2013-02-23 04:11:00,
2013-02-22 22:16:00,13.9,10.8,30.09,West,264,0.0,0.0,87,0.00,,SCT023,0.05,VWS V14.01,2013-02-23 04:16:00,
2013-02-22 22:22:00,14.1,11.2,30.09,West,269,0.0,0.0,88,0.00,,SCT023,0.05,VWS V14.01,2013-02-23 04:22:00,
2013-02-22 22:26:00,14.3,11.1,30.09,West,264,2.0,3.0,87,0.00,,SCT023,0.05,VWS V14.01,2013-02-23 04:26:00,
2013-02-22 22:32:00,14.0,10.9,30.08,West,276,0.0,0.0,87,0.00,,SCT023,0.05,VWS V14.01,2013-02-23 04:32:00,
2013-02-22 22:37:00,14.2,11.3,30.08,West,276,0.0,0.0,88,0.00,,SCT023,0.05,VWS V14.01,2013-02-23 04:37:00,
2013-02-22 22:42:00,14.1,10.9,30.08,West,276,0.0,0.0,87,0.00,,SCT023,0.05,VWS V14.01,2013-02-23 04:42:00,
2013-02-22 22:47:00,14.5,11.6,30.08,WNW,299,1.0,2.0,88,0.00,,SCT023,0.05,VWS V14.01,2013-02-23 04:47:00,
2013-02-22 22:52:00,14.7,11.5,30.09,WSW,254,2.0,3.0,87,0.00,,SCT023,0.05,VWS V14.01,2013-02-23 04:52:00,
2013-02-22 22:57:00,14.7,11.5,30.09,WNW,295,1.0,3.0,87,0.00,,SCT023,0.05,VWS V14.01,2013-02-23 04:57:00,
2013-02-22 23:00:00,14.8,11.6,30.09,WNW,289,0.0,1.0,87,0.00,,SCT023,0.05,VWS V14.01,2013-02-23 05:00:00,
2013-02-22 23:01:00,14.8,11.6,30.09,WNW,289,0.0,0.0,87,0.00,,SCT023,0.05,VWS V14.01,2013-02-23 05:01:00,
2013-02-22 23:06:00,14.8,11.6,30.09,WNW,289,0.0,0.0,87,0.00,,SCT023,0.05,VWS V14.01,2013-02-23 05:06:00,
2013-02-22 23:11:00,14.5,11.3,30.08,WNW,289,0.0,0.0,87,0.00,,SCT023,0.05,VWS V14.01,2013-02-23 05:11:00,
2013-02-22 23:16:00,14.3,11.1,30.08,WNW,289,0.0,0.0,87,0.00,,SCT023,0.05,VWS V14.01,2013-02-23 05:16:00,
2013-02-22 23:21:00,14.2,11.1,30.08,WNW,289,0.0,0.0,87,0.00,,SCT023,0.05,VWS V14.01,2013-02-23 05:21:00,
2013-02-22 23:26:00,14.1,10.9,30.08,WSW,252,1.0,3.0,87,0.00,,SCT023,0.05,VWS V14.01,2013-02-23 05:26:00,
2013-02-22 23:31:00,13.9,10.8,30.08,WNW,292,2.0,2.0,87,0.00,,SCT023,0.05,VWS V14.01,2013-02-23 05:31:00,
2013-02-22 23:36:00,14.1,11.2,30.08,WNW,298,0.0,2.0,88,0.00,,SCT023,0.05,VWS V14.01,2013-02-23 05:36:00,
2013-02-22 23:41:00,14.1,10.9,30.08,WNW,298,0.0,1.0,87,0.00,,CLR,0.05,VWS V14.01,2013-02-23 05:41:00,
2013-02-22 23:46:00,14.0,10.9,30.08,West,270,0.0,3.0,87,0.00,,CLR,0.05,VWS V14.01,2013-02-23 05:46:00,
2013-02-22 23:51:00,14.0,10.9,30.08,West,279,0.0,2.0,87,0.00,,CLR,0.05,VWS V14.01,2013-02-23 05:51:00,
2013-02-22 23:56:00,13.9,10.8,30.08,West,268,1.0,3.0,87,0.00,,CLR,0.05,VWS V14.01,2013-02-23 05:56:00,